Back to catalog

SAFIR 2

AliveCommunicationsSSO
NORAD 25399·PAYLOAD·🇩🇪 Germany

Launched Jul 10, 1998 from Baikonur Cosmodrome

Loading…

Next Passes (next 24 hours)

TLE

FreshSource: Space-Track

Epoch: Sep 14, 2026, 09:46 UTC

1 25399U 98043F   26257.40738936  .00000048  00000-0  39896-4 0  9995
2 25399  98.9863 246.6372 0001375 178.9165 181.2017 14.25639974464044

Track SAFIR 2 in real time with AllMySat

Download on the App Store